Location: Hopville
(44.8032°N, 123.1329°W)
Time: 04:50:53
(UTC+00:00)

Cosmos 2034 Rocket - Pass Details

Date: 24 January 2021
Orbit: 957 x 1001 km, 82.9° (Epoch: 26 February)

Event Time Altitude Azimuth Distance (km) Brightness Sun altitude
Rises 13:57:05 0° 202° (SSW) 3,711 6.9 -18.1°
Reaches altitude 10° 13:59:41 10° 208° (SSW) 2,766 6.2 -17.6°
Maximum altitude 14:05:52 51° 283° (WNW) 1,237 4.1 -16.6°
Drops below altitude 10° 14:12:04 10° 359° (N) 2,772 6.3 -15.5°
Sets 14:14:41 0° 5° (N) 3,720 7.0 -15.0°
